| time (UTC) | temp F | wind direction | speed knots | gust knots | rain 1hr in | rain 24hr in | rain mn in | humidity % | barometer mb |
| 20260507034038 | 59 | 48 | 3.5 | 7.8 | 0.00 | 0.10 | 0.10 | 85 | 1015.7 |
| 20260507033823 | 59 | 50 | 4.3 | 8.7 | 0.00 | 0.10 | 0.10 | 85 | 1016.9 |
| 20260507033530 | 59 | 70 | 3.5 | 8.7 | 0.00 | 0.10 | 0.10 | 85 | 1015.8 |
| 20260507033320 | 60 | 52 | 3.5 | 8.7 | 0.00 | 0.10 | 0.10 | 85 | 1017.0 |
| 20260507033024 | 59 | 60 | 3.5 | 7.8 | 0.00 | 0.10 | 0.10 | 85 | 1015.8 |
| 20260507032815 | 60 | 80 | 4.3 | 7.8 | 0.00 | 0.10 | 0.10 | 84 | 1016.9 |
| 20260507032510 | 59 | 51 | 2.6 | 8.7 | 0.00 | 0.10 | 0.10 | 84 | 1015.8 |
| 20260507032331 | 60 | 61 | 3.5 | 8.7 | 0.00 | 0.10 | 0.10 | 84 | 1017.0 |
| 20260507032006 | 59 | 18 | 3.5 | 8.7 | 0.00 | 0.10 | 0.10 | 84 | 1015.7 |
| 20260507031827 | 60 | 49 | 5.2 | 8.7 | 0.00 | 0.10 | 0.10 | 84 | 1016.8 |
| 20260507031554 | 59 | 25 | 3.5 | 7.8 | 0.00 | 0.10 | 0.10 | 84 | 1015.6 |
| 20260507031322 | 60 | 39 | 3.5 | 7.0 | 0.00 | 0.10 | 0.10 | 84 | 1016.7 |
| 20260507031048 | 60 | 33 | 3.5 | 7.0 | 0.00 | 0.10 | 0.10 | 84 | 1015.7 |
| 20260507030816 | 60 | 45 | 3.5 | 7.0 | 0.00 | 0.10 | 0.10 | 84 | 1016.8 |
| 20260507030539 | 60 | 8 | 2.6 | 8.7 | 0.00 | 0.10 | 0.10 | 84 | 1015.6 |
| 20260507030352 | 60 | 29 | 3.5 | 8.7 | 0.00 | 0.10 | 0.10 | 84 | 1017.0 |
| 20260507030005 | 60 | 23 | 3.5 | 8.7 | 0.00 | 0.10 | 0.10 | 84 | 1015.8 |
| 20260507025846 | 61 | 18 | 4.3 | 8.7 | 0.00 | 0.10 | 0.10 | 84 | 1016.9 |
| 20260507025538 | 60 | 18 | 2.6 | 7.8 | 0.00 | 0.10 | 0.10 | 84 | 1015.9 |
| 20260507025321 | 61 | 4 | 3.5 | 7.8 | 0.00 | 0.10 | 0.10 | 84 | 1017.1 |
| 20260507025030 | 60 | 23 | 2.6 | 7.8 | 0.00 | 0.10 | 0.10 | 84 | 1015.9 |
| 20260507024816 | 61 | 12 | 3.5 | 7.8 | 0.00 | 0.10 | 0.10 | 84 | 1017.1 |
| 20260507024512 | 60 | 359 | 3.5 | 7.8 | 0.00 | 0.10 | 0.10 | 84 | 1015.9 |
| 20260507024350 | 61 | 354 | 3.5 | 7.8 | 0.00 | 0.10 | 0.10 | 84 | 1017.2 |
| 20260507024049 | 60 | 359 | 3.5 | 7.8 | 0.00 | 0.10 | 0.10 | 84 | 1015.8 |
| 20260507023845 | 61 | 359 | 2.6 | 7.8 | 0.00 | 0.10 | 0.10 | 84 | 1017.0 |
| 20260507023527 | 60 | 354 | 3.5 | 7.8 | 0.00 | 0.10 | 0.10 | 84 | 1015.8 |
| 20260507023341 | 61 | 16 | 2.6 | 7.8 | 0.00 | 0.10 | 0.10 | 85 | 1016.9 |
| 20260507023044 | 60 | 32 | 1.7 | 7.8 | 0.00 | 0.10 | 0.10 | 85 | 1015.8 |
| 20260507022815 | 61 | 14 | 3.5 | 7.8 | 0.00 | 0.10 | 0.10 | 85 | 1016.9 |
| 20260507022538 | 60 | 26 | 0.9 | 4.3 | 0.00 | 0.10 | 0.10 | 85 | 1015.7 |
| 20260507022332 | 61 | 10 | 2.6 | 4.3 | 0.00 | 0.10 | 0.10 | 85 | 1016.9 |
| 20260507022031 | 60 | 31 | 0.9 | 4.3 | 0.00 | 0.10 | 0.10 | 85 | 1015.8 |
| 20260507021828 | 61 | 346 | 1.7 | 5.2 | 0.00 | 0.10 | 0.10 | 85 | 1016.9 |
| 20260507021514 | 60 | 359 | 1.7 | 5.2 | 0.00 | 0.10 | 0.10 | 85 | 1015.6 |
| 20260507021325 | 61 | 21 | 2.6 | 5.2 | 0.00 | 0.10 | 0.10 | 85 | 1016.7 |
| 20260507021010 | 60 | 10 | 2.6 | 5.2 | 0.00 | 0.10 | 0.10 | 85 | 1015.4 |
| 20260507020821 | 61 | 16 | 2.6 | 5.2 | 0.00 | 0.10 | 0.10 | 85 | 1016.6 |
| 20260507020600 | 60 | 15 | 1.7 | 7.0 | 0.00 | 0.10 | 0.10 | 85 | 1015.4 |
| 20260507020317 | 61 | 35 | 1.7 | 7.0 | 0.00 | 0.10 | 0.10 | 85 | 1016.6 |
| 20260507020106 | 60 | 16 | 2.6 | 7.0 | 0.00 | 0.10 | 0.10 | 85 | 1015.3 |
| 20260507015833 | 61 | 359 | 3.5 | 7.0 | 0.00 | 0.10 | 0.10 | 85 | 1016.5 |
| 20260507015550 | 60 | 11 | 1.7 | 7.0 | 0.00 | 0.10 | 0.10 | 85 | 1015.1 |
| 20260507015330 | 61 | 22 | 3.5 | 7.0 | 0.00 | 0.10 | 0.10 | 85 | 1016.3 |
| 20260507015044 | 60 | 39 | 1.7 | 5.2 | 0.00 | 0.10 | 0.10 | 85 | 1015.1 |
| 20260507014827 | 61 | 359 | 2.6 | 5.2 | 0.00 | 0.10 | 0.10 | 85 | 1016.5 |
| 20260507014539 | 60 | 28 | 1.7 | 5.2 | 0.00 | 0.10 | 0.10 | 85 | 1015.2 |
| 20260507014323 | 61 | 10 | 2.6 | 5.2 | 0.00 | 0.10 | 0.10 | 85 | 1016.5 |
| 20260507014026 | 60 | 359 | 2.6 | 5.2 | 0.00 | 0.10 | 0.10 | 85 | 1015.1 |
| 20260507013820 | 61 | 19 | 2.6 | 5.2 | 0.00 | 0.10 | 0.10 | 85 | 1016.4 |
| 20260507013520 | 60 | 53 | 0.9 | 5.2 | 0.00 | 0.10 | 0.10 | 85 | 1014.8 |
| 20260507013317 | 61 | 53 | 1.7 | 5.2 | 0.00 | 0.10 | 0.10 | 85 | 1016.1 |
| 20260507013013 | 60 | 35 | 0.9 | 5.2 | 0.00 | 0.10 | 0.10 | 84 | 1014.7 |
| 20260507012832 | 61 | 27 | 0.9 | 5.2 | 0.00 | 0.10 | 0.10 | 84 | 1016.0 |
| 20260507012607 | 60 | 39 | 2.6 | 5.2 | 0.00 | 0.10 | 0.10 | 84 | 1014.8 |
| 20260507012328 | 61 | 25 | 2.6 | 5.2 | 0.00 | 0.10 | 0.10 | 84 | 1016.1 |
| 20260507012054 | 60 | 41 | 1.7 | 5.2 | 0.00 | 0.10 | 0.10 | 84 | 1014.6 |
| 20260507011844 | 61 | 34 | 1.7 | 5.2 | 0.00 | 0.10 | 0.10 | 84 | 1016.1 |
| 20260507011532 | 60 | 33 | 2.6 | 4.3 | 0.00 | 0.10 | 0.10 | 84 | 1014.7 |
| 20260507011320 | 61 | 73 | 2.6 | 4.3 | 0.00 | 0.10 | 0.10 | 84 | 1016.0 |
| 20260507011021 | 60 | 41 | 0.9 | 7.0 | 0.00 | 0.10 | 0.10 | 84 | 1014.5 |
| 20260507010816 | 61 | 51 | 2.6 | 7.0 | 0.00 | 0.10 | 0.10 | 84 | 1015.7 |
| 20260507010518 | 60 | 4 | 2.6 | 7.0 | 0.00 | 0.10 | 0.10 | 84 | 1014.1 |
| 20260507010332 | 61 | 33 | 3.5 | 6.1 | 0.00 | 0.10 | 0.10 | 84 | 1015.3 |
| 20260507010111 | 60 | 18 | 2.6 | 6.1 | 0.00 | 0.10 | 0.10 | 84 | 1013.7 |
| 20260507005829 | 61 | 8 | 4.3 | 7.0 | 0.00 | 0.10 | 0.10 | 84 | 1015.1 |
| 20260507005552 | 61 | 9 | 2.6 | 6.1 | 0.00 | 0.10 | 0.10 | 84 | 1013.8 |
| 20260507005324 | 61 | 34 | 2.6 | 6.1 | 0.00 | 0.10 | 0.10 | 84 | 1015.1 |
| 20260507005046 | 61 | 24 | 2.6 | 6.1 | 0.00 | 0.10 | 0.10 | 84 | 1013.6 |
| 20260507004821 | 61 | 32 | 1.7 | 6.1 | 0.00 | 0.10 | 0.10 | 84 | 1015.1 |
| 20260507004541 | 61 | 41 | 1.7 | 6.1 | 0.00 | 0.10 | 0.10 | 84 | 1013.6 |
| 20260507004318 | 61 | 28 | 2.6 | 8.7 | 0.00 | 0.10 | 0.10 | 84 | 1015.1 |
| 20260507004030 | 61 | 27 | 2.6 | 8.7 | 0.00 | 0.10 | 0.10 | 84 | 1013.5 |
| 20260507003815 | 61 | 50 | 4.3 | 8.7 | 0.00 | 0.10 | 0.10 | 83 | 1015.0 |
| 20260507003516 | 61 | 359 | 1.7 | 7.0 | 0.00 | 0.10 | 0.10 | 84 | 1013.5 |
| 20260507003331 | 61 | 20 | 3.5 | 7.0 | 0.00 | 0.10 | 0.10 | 84 | 1014.9 |
| 20260507003012 | 61 | 4 | 2.6 | 5.2 | 0.00 | 0.10 | 0.10 | 84 | 1013.5 |
| 20260507002828 | 61 | 19 | 2.6 | 7.0 | 0.00 | 0.10 | 0.10 | 84 | 1014.8 |
| 20260507002504 | 61 | 14 | 1.7 | 7.0 | 0.00 | 0.10 | 0.10 | 84 | 1013.4 |
| 20260507002324 | 62 | 25 | 2.6 | 7.0 | 0.00 | 0.10 | 0.10 | 84 | 1014.7 |
| 20260507002101 | 61 | 43 | 2.6 | 7.0 | 0.00 | 0.10 | 0.10 | 84 | 1013.3 |
| 20260507001820 | 62 | 19 | 2.6 | 7.0 | 0.00 | 0.10 | 0.10 | 84 | 1014.8 |
| 20260507001558 | 61 | 36 | 2.6 | 7.0 | 0.00 | 0.10 | 0.10 | 84 | 1013.4 |
| 20260507001317 | 62 | 27 | 3.5 | 7.0 | 0.00 | 0.10 | 0.10 | 84 | 1014.8 |
| 20260507001046 | 61 | 4 | 2.6 | 7.0 | 0.00 | 0.10 | 0.10 | 84 | 1013.3 |
| 20260507000832 | 61 | 9 | 3.5 | 7.0 | 0.00 | 0.10 | 0.10 | 84 | 1014.8 |
| 20260507000536 | 61 | 15 | 3.5 | 8.7 | 0.00 | 0.10 | 0.10 | 84 | 1013.4 |
| 20260507000328 | 62 | 17 | 3.5 | 8.7 | 0.00 | 0.10 | 0.10 | 84 | 1014.7 |
| 20260507000030 | 61 | 11 | 3.5 | 8.7 | 0.00 | 0.10 | 0.10 | 84 | 1013.2 |
| 20260506235824 | 62 | 19 | 4.3 | 8.7 | 0.00 | 0.10 | 0.10 | 84 | 1014.7 |
| 20260506235524 | 61 | 354 | 3.5 | 7.0 | 0.00 | 0.10 | 0.10 | 84 | 1013.2 |
| 20260506235319 | 62 | 29 | 4.3 | 7.0 | 0.00 | 0.10 | 0.10 | 84 | 1014.6 |
| 20260506235017 | 61 | 10 | 2.6 | 8.7 | 0.00 | 0.10 | 0.10 | 84 | 1013.0 |
| 20260506234815 | 61 | 14 | 3.5 | 8.7 | 0.00 | 0.10 | 0.10 | 84 | 1014.6 |
| 20260506234507 | 61 | 33 | 4.3 | 8.7 | 0.00 | 0.10 | 0.10 | 84 | 1013.0 |
| 20260506234333 | 61 | 14 | 4.3 | 8.7 | 0.00 | 0.10 | 0.10 | 84 | 1014.6 |
| 20260506234002 | 61 | 24 | 3.5 | 8.7 | 0.00 | 0.10 | 0.10 | 84 | 1013.1 |
| 20260506233829 | 62 | 32 | 4.3 | 8.7 | 0.00 | 0.10 | 0.10 | 84 | 1014.5 |
| 20260506233556 | 61 | 33 | 2.6 | 7.0 | 0.00 | 0.10 | 0.10 | 84 | 1013.0 |
| 20260506233324 | 61 | 23 | 3.5 | 7.0 | 0.00 | 0.10 | 0.10 | 84 | 1014.6 |
| 20260506233052 | 61 | 4 | 2.6 | 5.2 | 0.00 | 0.10 | 0.10 | 84 | 1013.2 |
| 20260506232840 | 61 | 41 | 1.7 | 5.2 | 0.00 | 0.10 | 0.10 | 85 | 1014.7 |
| 20260506232517 | 61 | 14 | 2.6 | 5.2 | 0.00 | 0.10 | 0.10 | 84 | 1013.3 |
| 20260506232316 | 61 | 4 | 2.6 | 5.2 | 0.00 | 0.10 | 0.10 | 84 | 1014.9 |
| 20260506232002 | 61 | 359 | 2.6 | 7.0 | 0.00 | 0.10 | 0.10 | 84 | 1013.3 |
| 20260506231849 | 61 | 9 | 2.6 | 7.0 | 0.00 | 0.10 | 0.10 | 84 | 1014.8 |
| 20260506231534 | 61 | 19 | 2.6 | 7.0 | 0.00 | 0.10 | 0.10 | 84 | 1013.3 |
| 20260506231343 | 61 | 27 | 4.3 | 7.8 | 0.00 | 0.10 | 0.10 | 84 | 1014.6 |
| 20260506231100 | 60 | 23 | 1.7 | 7.8 | 0.00 | 0.10 | 0.10 | 85 | 1013.3 |
| 20260506230820 | 61 | 17 | 2.6 | 7.8 | 0.00 | 0.10 | 0.10 | 85 | 1014.7 |
| 20260506230556 | 60 | 348 | 4.3 | 7.8 | 0.00 | 0.10 | 0.10 | 84 | 1013.1 |
| 20260506230317 | 61 | 26 | 4.3 | 7.0 | 0.00 | 0.10 | 0.10 | 84 | 1014.7 |
| 20260506230050 | 60 | 20 | 2.6 | 7.8 | 0.00 | 0.10 | 0.10 | 84 | 1013.2 |
| 20260506225832 | 61 | 33 | 2.6 | 9.6 | 0.00 | 0.10 | 0.10 | 84 | 1014.7 |
| 20260506225538 | 60 | 62 | 2.6 | 9.6 | 0.00 | 0.10 | 0.10 | 84 | 1013.2 |
| 20260506225327 | 61 | 35 | 4.3 | 9.6 | 0.00 | 0.10 | 0.10 | 84 | 1014.7 |
| 20260506225035 | 60 | 21 | 4.3 | 9.6 | 0.00 | 0.10 | 0.10 | 85 | 1013.3 |
| 20260506224845 | 61 | 354 | 1.7 | 8.7 | 0.00 | 0.10 | 0.10 | 85 | 1014.7 |
| 20260506224559 | 60 | 354 | 2.6 | 8.7 | 0.00 | 0.10 | 0.10 | 85 | 1013.0 |
| 20260506224321 | 61 | 42 | 4.3 | 8.7 | 0.00 | 0.10 | 0.10 | 84 | 1014.4 |
| 20260506224049 | 60 | 14 | 3.5 | 9.6 | 0.00 | 0.10 | 0.10 | 85 | 1013.0 |
| 20260506223818 | 61 | 43 | 3.5 | 9.6 | 0.00 | 0.10 | 0.10 | 85 | 1014.6 |
| 20260506223542 | 60 | 16 | 5.2 | 9.6 | 0.00 | 0.10 | 0.10 | 85 | 1012.9 |
| 20260506223315 | 60 | 14 | 4.3 | 9.6 | 0.00 | 0.10 | 0.10 | 86 | 1014.3 |
| 20260506223036 | 60 | 316 | 1.7 | 9.6 | 0.00 | 0.10 | 0.10 | 86 | 1012.7 |
| 20260506222831 | 60 | 354 | 4.3 | 9.6 | 0.00 | 0.10 | 0.10 | 85 | 1014.5 |
| 20260506222530 | 59 | 359 | 6.1 | 9.6 | 0.00 | 0.10 | 0.10 | 85 | 1012.8 |
| 20260506222328 | 60 | 20 | 6.1 | 9.6 | 0.00 | 0.10 | 0.10 | 85 | 1014.2 |
| 20260506222012 | 59 | 30 | 5.2 | 9.6 | 0.00 | 0.10 | 0.10 | 85 | 1012.6 |
| 20260506221826 | 60 | 28 | 6.1 | 9.6 | 0.00 | 0.10 | 0.10 | 85 | 1014.2 |
| 20260506221506 | 59 | 345 | 3.5 | 10.4 | 0.00 | 0.10 | 0.10 | 86 | 1012.8 |
| 20260506221322 | 60 | 21 | 5.2 | 10.4 | 0.00 | 0.10 | 0.10 | 85 | 1014.5 |
| 20260506221101 | 59 | 359 | 7.0 | 10.4 | 0.00 | 0.10 | 0.10 | 85 | 1012.7 |
| 20260506220838 | 60 | 359 | 7.0 | 10.4 | 0.00 | 0.10 | 0.10 | 85 | 1014.2 |
| 20260506220527 | 59 | 21 | 5.2 | 10.4 | 0.00 | 0.10 | 0.10 | 85 | 1012.6 |
| 20260506220333 | 60 | 359 | 6.1 | 9.6 | 0.00 | 0.10 | 0.10 | 85 | 1014.5 |
| 20260506220014 | 59 | 60 | 4.3 | 8.7 | 0.00 | 0.10 | 0.10 | 86 | 1012.8 |
| 20260506215849 | 60 | 346 | 4.3 | 8.7 | 0.00 | 0.10 | 0.10 | 86 | 1014.3 |
| 20260506215552 | 59 | 341 | 4.3 | 10.4 | 0.00 | 0.10 | 0.10 | 86 | 1012.7 |
| 20260506215326 | 59 | 35 | 4.3 | 10.4 | 0.00 | 0.10 | 0.10 | 87 | 1014.4 |
| 20260506215042 | 58 | 30 | 5.2 | 10.4 | 0.00 | 0.10 | 0.10 | 86 | 1012.7 |
| 20260506214823 | 59 | 354 | 7.0 | 10.4 | 0.00 | 0.10 | 0.10 | 86 | 1014.3 |
| 20260506214539 | 58 | 350 | 5.2 | 8.7 | 0.00 | 0.10 | 0.10 | 86 | 1013.0 |
| 20260506214320 | 59 | 326 | 6.1 | 7.8 | 0.00 | 0.10 | 0.10 | 87 | 1014.7 |
| 20260506214032 | 58 | 13 | 3.5 | 7.8 | 0.00 | 0.10 | 0.10 | 86 | 1013.0 |
| 20260506213817 | 59 | 354 | 4.3 | 10.4 | 0.00 | 0.10 | 0.10 | 87 | 1014.8 |
| 20260506213531 | 58 | 15 | 4.3 | 10.4 | 0.00 | 0.10 | 0.10 | 87 | 1013.1 |
| 20260506213333 | 58 | 26 | 5.2 | 10.4 | 0.00 | 0.10 | 0.10 | 87 | 1014.4 |
| 20260506213016 | 58 | 316 | 6.1 | 8.7 | 0.00 | 0.10 | 0.10 | 87 | 1012.9 |
| 20260506212830 | 58 | 345 | 6.1 | 9.6 | 0.00 | 0.10 | 0.10 | 87 | 1014.7 |
| 20260506212507 | 58 | 359 | 3.5 | 9.6 | 0.00 | 0.10 | 0.10 | 87 | 1013.4 |
| 20260506212328 | 58 | 359 | 4.3 | 9.6 | 0.00 | 0.10 | 0.10 | 87 | 1015.2 |
| 20260506212102 | 58 | 330 | 5.2 | 9.6 | 0.00 | 0.10 | 0.10 | 87 | 1013.6 |
| 20260506211824 | 58 | 345 | 5.2 | 10.4 | 0.00 | 0.10 | 0.10 | 87 | 1015.1 |
| 20260506211552 | 57 | 346 | 5.2 | 10.4 | 0.00 | 0.10 | 0.10 | 88 | 1013.6 |
| 20260506211339 | 58 | 359 | 7.0 | 10.4 | 0.00 | 0.10 | 0.10 | 87 | 1015.3 |
| 20260506211023 | 57 | 327 | 7.0 | 10.4 | 0.00 | 0.10 | 0.10 | 87 | 1013.6 |
| 20260506210836 | 58 | 359 | 7.8 | 10.4 | 0.00 | 0.10 | 0.10 | 87 | 1015.1 |
| 20260506210547 | 57 | 10 | 3.5 | 10.4 | 0.00 | 0.10 | 0.10 | 88 | 1013.5 |
| 20260506210331 | 58 | 359 | 5.2 | 10.4 | 0.00 | 0.10 | 0.10 | 87 | 1015.3 |
| 20260506210049 | 57 | 21 | 6.1 | 10.4 | 0.00 | 0.10 | 0.10 | 87 | 1013.6 |
| 20260506205828 | 58 | 359 | 5.2 | 10.4 | 0.00 | 0.10 | 0.10 | 87 | 1015.2 |
| 20260506205533 | 57 | 335 | 5.2 | 11.3 | 0.00 | 0.10 | 0.10 | 87 | 1013.6 |
| 20260506205324 | 58 | 21 | 7.0 | 11.3 | 0.00 | 0.10 | 0.10 | 87 | 1015.2 |
| 20260506205024 | 57 | 322 | 7.0 | 11.3 | 0.00 | 0.10 | 0.10 | 87 | 1013.5 |
| 20260506204817 | 58 | 354 | 7.0 | 10.4 | 0.00 | 0.10 | 0.10 | 87 | 1015.2 |
| 20260506204548 | 57 | 338 | 5.2 | 9.6 | 0.00 | 0.10 | 0.10 | 88 | 1013.4 |
| 20260506204332 | 58 | 21 | 6.1 | 9.6 | 0.00 | 0.10 | 0.10 | 88 | 1015.2 |
| 20260506204037 | 57 | 343 | 4.3 | 9.6 | 0.00 | 0.10 | 0.10 | 88 | 1013.5 |
| 20260506203828 | 58 | 327 | 5.2 | 11.3 | 0.00 | 0.10 | 0.10 | 88 | 1015.3 |
| 20260506203527 | 57 | 359 | 6.1 | 11.3 | 0.00 | 0.10 | 0.10 | 88 | 1013.6 |
| 20260506203326 | 57 | 359 | 5.2 | 11.3 | 0.00 | 0.10 | 0.10 | 88 | 1015.4 |
| 20260506203025 | 57 | 337 | 5.2 | 10.4 | 0.00 | 0.10 | 0.10 | 88 | 1013.7 |
| 20260506202821 | 57 | 324 | 5.2 | 10.4 | 0.00 | 0.10 | 0.10 | 88 | 1015.3 |
| 20260506202505 | 57 | 359 | 6.1 | 10.4 | 0.00 | 0.10 | 0.10 | 88 | 1013.4 |
| 20260506202319 | 57 | 336 | 6.1 | 10.4 | 0.00 | 0.10 | 0.10 | 88 | 1015.1 |
| 20260506202103 | 57 | 346 | 4.3 | 11.3 | 0.00 | 0.10 | 0.10 | 88 | 1013.3 |
| 20260506201854 | 57 | 33 | 6.1 | 11.3 | 0.00 | 0.10 | 0.10 | 88 | 1015.3 |
| 20260506201542 | 56 | 354 | 7.0 | 11.3 | 0.00 | 0.10 | 0.10 | 88 | 1013.6 |
| 20260506201328 | 57 | 31 | 6.1 | 13.9 | 0.00 | 0.10 | 0.10 | 88 | 1015.4 |
| 20260506201014 | 56 | 25 | 4.3 | 13.9 | 0.00 | 0.10 | 0.10 | 88 | 1013.7 |
| 20260506200824 | 57 | 12 | 7.0 | 13.9 | 0.00 | 0.10 | 0.10 | 88 | 1015.4 |
| 20260506200505 | 56 | 354 | 5.2 | 12.2 | 0.00 | 0.10 | 0.10 | 88 | 1013.7 |
| 20260506200340 | 57 | 29 | 7.0 | 12.2 | 0.00 | 0.10 | 0.10 | 88 | 1015.4 |
| 20260506200055 | 56 | 4 | 4.3 | 12.2 | 0.00 | 0.10 | 0.10 | 88 | 1013.6 |
| 20260506195830 | 57 | 323 | 7.8 | 12.2 | 0.00 | 0.10 | 0.10 | 88 | 1015.4 |
| 20260506195545 | 57 | 354 | 7.8 | 12.2 | 0.00 | 0.10 | 0.10 | 88 | 1013.5 |
| 20260506195326 | 57 | 320 | 5.2 | 10.4 | 0.00 | 0.10 | 0.10 | 89 | 1015.5 |
| 20260506195039 | 57 | 359 | 6.1 | 10.4 | 0.00 | 0.10 | 0.10 | 89 | 1013.5 |
| 20260506194822 | 57 | 354 | 6.1 | 10.4 | 0.00 | 0.10 | 0.10 | 89 | 1015.3 |
| 20260506194529 | 56 | 337 | 4.3 | 10.4 | 0.00 | 0.10 | 0.10 | 89 | 1013.7 |
| 20260506194317 | 57 | 359 | 7.0 | 10.4 | 0.00 | 0.10 | 0.10 | 89 | 1015.5 |
| 20260506194019 | 56 | 359 | 5.2 | 10.4 | 0.01 | 0.10 | 0.10 | 89 | 1013.6 |
| 20260506193814 | 57 | 10 | 5.2 | 10.4 | 0.01 | 0.10 | 0.10 | 89 | 1015.5 |
| 20260506193506 | 56 | 324 | 7.8 | 10.4 | 0.01 | 0.10 | 0.10 | 89 | 1013.8 |
| 20260506193329 | 56 | 359 | 7.0 | 10.4 | 0.01 | 0.10 | 0.10 | 89 | 1015.6 |
| 20260506193101 | 56 | 342 | 6.1 | 10.4 | 0.01 | 0.10 | 0.10 | 89 | 1013.7 |
| 20260506192825 | 56 | 342 | 7.8 | 10.4 | 0.01 | 0.10 | 0.10 | 89 | 1015.4 |
| 20260506192557 | 56 | 359 | 7.0 | 11.3 | 0.01 | 0.10 | 0.10 | 89 | 1013.5 |
| 20260506192342 | 56 | 4 | 6.1 | 12.2 | 0.01 | 0.10 | 0.10 | 90 | 1015.4 |
| 20260506192027 | 56 | 14 | 7.0 | 12.2 | 0.01 | 0.10 | 0.10 | 89 | 1013.5 |
| 20260506191836 | 56 | 321 | 7.8 | 12.2 | 0.01 | 0.10 | 0.10 | 89 | 1015.5 |
| 20260506191555 | 56 | 342 | 7.8 | 11.3 | 0.01 | 0.10 | 0.10 | 89 | 1013.7 |
| 20260506191331 | 56 | 343 | 7.0 | 9.6 | 0.01 | 0.10 | 0.10 | 89 | 1015.5 |
| 20260506191046 | 56 | 346 | 4.3 | 9.6 | 0.01 | 0.10 | 0.10 | 90 | 1013.7 |
| 20260506190829 | 56 | 4 | 6.1 | 9.6 | 0.01 | 0.10 | 0.10 | 90 | 1015.6 |
| 20260506190543 | 55 | 347 | 4.3 | 10.4 | 0.01 | 0.10 | 0.10 | 90 | 1013.9 |
| 20260506190325 | 56 | 319 | 7.0 | 10.4 | 0.01 | 0.10 | 0.10 | 90 | 1015.8 |
| 20260506190032 | 56 | 324 | 6.1 | 10.4 | 0.01 | 0.10 | 0.10 | 90 | 1013.7 |
| 20260506185822 | 56 | 359 | 4.3 | 10.4 | 0.01 | 0.10 | 0.10 | 90 | 1015.6 |
| 20260506185527 | 56 | 359 | 5.2 | 10.4 | 0.01 | 0.10 | 0.10 | 90 | 1013.8 |
| 20260506185319 | 56 | 359 | 4.3 | 9.6 | 0.01 | 0.10 | 0.10 | 90 | 1015.6 |
| 20260506185014 | 56 | 354 | 4.3 | 10.4 | 0.01 | 0.10 | 0.10 | 90 | 1013.9 |
| 20260506184814 | 56 | 347 | 5.2 | 10.4 | 0.01 | 0.10 | 0.10 | 90 | 1015.8 |
| 20260506184505 | 56 | 324 | 5.2 | 10.4 | 0.01 | 0.10 | 0.10 | 90 | 1013.9 |
| 20260506184331 | 56 | 16 | 6.1 | 10.4 | 0.01 | 0.10 | 0.10 | 89 | 1015.6 |
| 20260506184059 | 55 | 33 | 5.2 | 11.3 | 0.00 | 0.09 | 0.09 | 89 | 1013.7 |
| 20260506183827 | 56 | 359 | 5.2 | 11.3 | 0.00 | 0.09 | 0.09 | 89 | 1015.8 |
| 20260506183555 | 55 | 4 | 5.2 | 12.2 | 0.00 | 0.09 | 0.09 | 89 | 1014.3 |
| 20260506183324 | 56 | 16 | 6.1 | 12.2 | 0.00 | 0.09 | 0.09 | 89 | 1016.2 |
| 20260506183043 | 56 | 345 | 6.1 | 12.2 | 0.00 | 0.09 | 0.09 | 89 | 1013.9 |
| 20260506182819 | 56 | 4 | 6.1 | 12.2 | 0.00 | 0.09 | 0.09 | 89 | 1015.4 |
| 20260506182535 | 56 | 359 | 4.3 | 11.3 | 0.00 | 0.09 | 0.09 | 89 | 1013.7 |
| 20260506182316 | 56 | 320 | 7.0 | 11.3 | 0.00 | 0.09 | 0.09 | 89 | 1015.5 |
| 20260506182018 | 55 | 354 | 6.1 | 11.3 | 0.00 | 0.09 | 0.09 | 89 | 1013.6 |
| 20260506181851 | 56 | 4 | 7.0 | 11.3 | 0.00 | 0.09 | 0.09 | 89 | 1015.4 |
| 20260506181551 | 55 | 308 | 6.1 | 11.3 | 0.00 | 0.09 | 0.09 | 89 | 1013.5 |
| 20260506181325 | 56 | 323 | 7.0 | 11.3 | 0.00 | 0.09 | 0.09 | 89 | 1015.5 |
| 20260506181042 | 55 | 10 | 6.1 | 13.0 | 0.00 | 0.09 | 0.09 | 89 | 1013.5 |
| 20260506180822 | 56 | 359 | 7.8 | 13.0 | 0.00 | 0.09 | 0.09 | 89 | 1015.4 |
| 20260506180534 | 55 | 345 | 7.8 | 13.0 | 0.00 | 0.09 | 0.09 | 89 | 1013.7 |
| 20260506180317 | 56 | 318 | 7.8 | 13.0 | 0.00 | 0.09 | 0.09 | 89 | 1015.7 |
| 20260506180020 | 55 | 330 | 4.3 | 12.2 | 0.00 | 0.09 | 0.09 | 89 | 1013.6 |
| 20260506175833 | 56 | 349 | 6.1 | 13.0 | 0.00 | 0.09 | 0.09 | 89 | 1015.8 |
| 20260506175515 | 55 | 347 | 8.7 | 13.0 | 0.00 | 0.09 | 0.09 | 89 | 1014.1 |
| 20260506175329 | 56 | 348 | 8.7 | 13.0 | 0.00 | 0.09 | 0.09 | 89 | 1015.8 |
| 20260506175003 | 55 | 341 | 5.2 | 14.8 | 0.00 | 0.09 | 0.09 | 90 | 1013.3 |
| 20260506174826 | 56 | 4 | 7.8 | 14.8 | 0.00 | 0.09 | 0.09 | 89 | 1015.4 |
| 20260506174558 | 55 | 341 | 10.4 | 14.8 | 0.00 | 0.09 | 0.09 | 89 | 1013.9 |
| 20260506174323 | 56 | 334 | 9.6 | 14.8 | 0.00 | 0.09 | 0.09 | 90 | 1016.0 |
| 20260506174049 | 56 | 344 | 7.8 | 13.9 | 0.00 | 0.09 | 0.09 | 90 | 1013.9 |
| 20260506173819 | 56 | 320 | 7.8 | 13.9 | 0.00 | 0.09 | 0.09 | 90 | 1015.9 |
| 20260506173543 | 56 | 359 | 6.1 | 13.9 | 0.00 | 0.09 | 0.09 | 90 | 1013.7 |
| 20260506173314 | 56 | 343 | 5.2 | 13.9 | 0.00 | 0.09 | 0.09 | 90 | 1015.3 |
| 20260506173033 | 56 | 15 | 4.3 | 13.9 | 0.00 | 0.09 | 0.09 | 90 | 1013.2 |
| 20260506172827 | 56 | 14 | 7.8 | 13.9 | 0.00 | 0.09 | 0.09 | 90 | 1015.3 |
| 20260506172513 | 56 | 14 | 5.2 | 13.0 | 0.00 | 0.09 | 0.09 | 90 | 1013.2 |
| 20260506172323 | 56 | 359 | 4.3 | 13.0 | 0.00 | 0.09 | 0.09 | 90 | 1014.9 |
| 20260506172005 | 56 | 319 | 6.1 | 13.0 | 0.00 | 0.09 | 0.09 | 90 | 1013.5 |
| 20260506171821 | 56 | 359 | 8.7 | 13.0 | 0.00 | 0.09 | 0.09 | 90 | 1015.6 |
| 20260506171600 | 56 | 359 | 6.1 | 13.0 | 0.00 | 0.09 | 0.09 | 90 | 1013.6 |
| 20260506171316 | 56 | 359 | 7.0 | 12.2 | 0.00 | 0.09 | 0.09 | 90 | 1015.3 |
| 20260506171049 | 56 | 307 | 7.0 | 12.2 | 0.00 | 0.09 | 0.09 | 90 | 1013.1 |
| 20260506170833 | 57 | 359 | 6.1 | 12.2 | 0.00 | 0.09 | 0.09 | 90 | 1014.8 |
| 20260506170543 | 56 | 359 | 7.0 | 12.2 | 0.00 | 0.09 | 0.09 | 90 | 1012.7 |
| 20260506170329 | 57 | 359 | 7.0 | 12.2 | 0.00 | 0.09 | 0.09 | 90 | 1014.7 |
| 20260506170037 | 57 | 359 | 8.7 | 12.2 | 0.00 | 0.09 | 0.09 | 91 | 1012.8 |
| 20260506165826 | 57 | 318 | 5.2 | 9.6 | 0.00 | 0.09 | 0.09 | 91 | 1014.7 |
| 20260506165538 | 57 | 359 | 4.3 | 9.6 | 0.00 | 0.09 | 0.09 | 91 | 1012.7 |
| 20260506165322 | 57 | 359 | 4.3 | 9.6 | 0.00 | 0.09 | 0.09 | 91 | 1014.7 |
| 20260506165027 | 56 | 359 | 5.2 | 9.6 | 0.00 | 0.09 | 0.09 | 92 | 1012.3 |
| 20260506164817 | 57 | 359 | 6.1 | 9.6 | 0.00 | 0.09 | 0.09 | 92 | 1014.2 |
| 20260506164549 | 56 | 17 | 4.3 | 9.6 | 0.00 | 0.09 | 0.09 | 92 | 1012.1 |
| 20260506164331 | 56 | 359 | 4.3 | 9.6 | 0.00 | 0.09 | 0.09 | 92 | 1014.1 |
| 20260506164043 | 55 | 4 | 3.5 | 8.7 | 0.00 | 0.09 | 0.09 | 91 | 1012.2 |
| 20260506163848 | 56 | 16 | 4.3 | 8.7 | 0.00 | 0.09 | 0.09 | 91 | 1014.4 |
| 20260506163513 | 55 | 359 | 6.1 | 8.7 | 0.00 | 0.09 | 0.09 | 91 | 1012.4 |
| 20260506163322 | 56 | 4 | 4.3 | 8.7 | 0.00 | 0.09 | 0.09 | 92 | 1014.7 |
| 20260506163003 | 55 | 14 | 2.6 | 7.0 | 0.01 | 0.09 | 0.09 | 92 | 1012.8 |
| 20260506162818 | 56 | 354 | 3.5 | 7.0 | 0.01 | 0.09 | 0.09 | 92 | 1014.8 |
| 20260506162553 | 55 | 359 | 2.6 | 6.1 | 0.01 | 0.09 | 0.09 | 91 | 1012.6 |
| 20260506162315 | 55 | 354 | 3.5 | 8.7 | 0.01 | 0.09 | 0.09 | 91 | 1014.6 |
| 20260506162045 | 55 | 332 | 2.6 | 8.7 | 0.02 | 0.09 | 0.09 | 91 | 1012.5 |
| 20260506161829 | 55 | 27 | 2.6 | 8.7 | 0.02 | 0.09 | 0.09 | 91 | 1014.2 |
| 20260506161542 | 55 | 79 | 4.3 | 8.7 | 0.02 | 0.09 | 0.09 | 92 | 1012.2 |
| 20260506161327 | 55 | 154 | 3.5 | 9.6 | 0.02 | 0.09 | 0.09 | 92 | 1014.0 |
| 20260506161032 | 54 | 84 | 2.6 | 9.6 | 0.02 | 0.09 | 0.09 | 92 | 1011.8 |
| 20260506160822 | 55 | 59 | 4.3 | 12.2 | 0.02 | 0.09 | 0.09 | 92 | 1013.7 |
| 20260506160527 | 54 | 124 | 5.2 | 12.2 | 0.02 | 0.09 | 0.09 | 91 | 1011.8 |
| 20260506160318 | 55 | 85 | 5.2 | 13.9 | 0.03 | 0.09 | 0.09 | 91 | 1013.7 |
| 20260506160012 | 54 | 122 | 5.2 | 13.9 | 0.04 | 0.09 | 0.09 | 91 | 1011.9 |
| 20260506155854 | 55 | 137 | 5.2 | 13.9 | 0.04 | 0.09 | 0.09 | 91 | 1013.8 |
| 20260506155539 | 54 | 97 | 7.0 | 13.9 | 0.06 | 0.09 | 0.09 | 92 | 1011.5 |
| 20260506155329 | 55 | 57 | 6.1 | 11.3 | 0.07 | 0.09 | 0.09 | 92 | 1013.7 |
| 20260506155034 | 54 | 97 | 6.1 | 12.2 | 0.08 | 0.09 | 0.09 | 92 | 1011.5 |
| 20260506154825 | 55 | 110 | 6.1 | 12.2 | 0.08 | 0.09 | 0.09 | 92 | 1013.1 |
| 20260506154531 | 54 | 76 | 7.0 | 12.2 | 0.08 | 0.09 | 0.09 | 92 | 1011.0 |
| 20260506154323 | 54 | 63 | 6.1 | 10.4 | 0.08 | 0.09 | 0.09 | 91 | 1013.1 |
| 20260506154010 | 54 | 66 | 4.3 | 12.2 | 0.08 | 0.09 | 0.09 | 91 | 1011.8 |
| 20260506153820 | 54 | 124 | 5.2 | 12.2 | 0.08 | 0.09 | 0.09 | 91 | 1014.3 |
| 20260506153559 | 54 | 77 | 6.1 | 12.2 | 0.08 | 0.09 | 0.09 | 91 | 1011.9 |
| 20260506153336 | 54 | 93 | 4.3 | 8.7 | 0.08 | 0.09 | 0.09 | 91 | 1014.0 |
| 20260506153030 | 54 | 77 | 3.5 | 13.0 | 0.07 | 0.08 | 0.08 | 91 | 1013.0 |
| 20260506152832 | 54 | 23 | 1.7 | 13.0 | 0.07 | 0.08 | 0.08 | 91 | 1015.4 |
| 20260506152518 | 54 | 333 | 6.1 | 13.0 | 0.07 | 0.08 | 0.08 | 91 | 1013.0 |
| 20260506152327 | 54 | 342 | 8.7 | 13.0 | 0.07 | 0.08 | 0.08 | 91 | 1014.2 |
| 20260506152005 | 54 | 22 | 7.0 | 11.3 | 0.06 | 0.07 | 0.07 | 91 | 1012.7 |
| 20260506151824 | 55 | 359 | 5.2 | 8.7 | 0.06 | 0.07 | 0.07 | 91 | 1015.1 |
| 20260506151601 | 54 | 303 | 0.9 | 12.2 | 0.06 | 0.07 | 0.07 | 91 | 1013.7 |
| 20260506151321 | 55 | 57 | 5.2 | 12.2 | 0.06 | 0.07 | 0.07 | 91 | 1015.6 |
| 20260506151053 | 54 | 359 | 7.0 | 11.3 | 0.06 | 0.07 | 0.07 | 91 | 1013.3 |
| 20260506150817 | 55 | 27 | 5.2 | 10.4 | 0.06 | 0.07 | 0.07 | 91 | 1015.5 |
| 20260506150545 | 54 | 20 | 5.2 | 12.2 | 0.05 | 0.06 | 0.07 | 91 | 1013.6 |
| 20260506150334 | 55 | 4 | 4.3 | 13.0 | 0.05 | 0.06 | 0.06 | 91 | 1015.5 |
| 20260506150009 | 55 | 4 | 6.1 | 14.8 | 0.04 | 0.05 | 0.05 | 91 | 1013.5 |
| 20260506145830 | 55 | 26 | 6.1 | 14.8 | 0.03 | 0.04 | 0.04 | 91 | 1015.5 |
| 20260506145603 | 55 | 33 | 6.1 | 14.8 | 0.01 | 0.02 | 0.03 | 91 | 1013.3 |
| 20260506145325 | 55 | 30 | 7.8 | 13.9 | 0.01 | 0.02 | 0.02 | 91 | 1015.6 |
| 20260506145052 | 55 | 4 | 7.8 | 16.5 | 0.00 | 0.01 | 0.01 | 91 | 1013.9 |
| 20260506144820 | 56 | 322 | 9.6 | 16.5 | 0.00 | 0.01 | 0.01 | 90 | 1015.9 |
| 20260506144548 | 55 | 349 | 8.7 | 16.5 | 0.00 | 0.01 | 0.01 | 90 | 1013.3 |
| 20260506144315 | 56 | 315 | 9.6 | 16.5 | 0.00 | 0.01 | 0.01 | 91 | 1015.2 |
| 20260506144037 | 56 | 12 | 7.0 | 15.6 | 0.00 | 0.01 | 0.01 | 90 | 1012.7 |
| 20260506143827 | 56 | 14 | 7.8 | 15.6 | 0.00 | 0.01 | 0.01 | 90 | 1014.7 |
| 20260506143601 | 56 | 345 | 8.7 | 15.6 | 0.00 | 0.01 | 0.01 | 90 | 1012.8 |
| 20260506143323 | 57 | 4 | 8.7 | 15.6 | 0.00 | 0.01 | 0.01 | 90 | 1014.9 |
| 20260506143053 | 56 | 348 | 5.2 | 13.9 | 0.00 | 0.01 | 0.01 | 90 | 1012.9 |
| 20260506142819 | 57 | 34 | 7.8 | 13.9 | 0.00 | 0.01 | 0.01 | 89 | 1014.8 |
| 20260506142542 | 57 | 29 | 7.8 | 13.0 | 0.00 | 0.01 | 0.01 | 89 | 1012.5 |
| 20260506142402 | 57 | 8 | 7.8 | 13.9 | 0.00 | 0.01 | 0.01 | 89 | 1014.8 |
| 20260506142013 | 57 | 10 | 7.8 | 13.9 | 0.00 | 0.01 | 0.01 | 89 | 1012.7 |
| 20260506141830 | 58 | 26 | 7.0 | 13.9 | 0.00 | 0.01 | 0.01 | 88 | 1014.7 |
| 20260506141501 | 58 | 335 | 8.7 | 13.9 | 0.00 | 0.01 | 0.01 | 88 | 1012.8 |
| 20260506141325 | 58 | 359 | 7.8 | 14.8 | 0.00 | 0.01 | 0.01 | 88 | 1015.1 |
| 20260506141035 | 58 | 326 | 9.6 | 14.8 | 0.00 | 0.01 | 0.01 | 88 | 1012.7 |
| 20260506140841 | 59 | 359 | 8.7 | 14.8 | 0.00 | 0.01 | 0.01 | 88 | 1014.9 |
| 20260506140601 | 58 | 25 | 7.0 | 14.8 | 0.00 | 0.01 | 0.01 | 88 | 1012.6 |
| 20260506140316 | 59 | 344 | 7.0 | 14.8 | 0.00 | 0.01 | 0.01 | 87 | 1014.5 |
| 20260506140059 | 58 | 4 | 8.7 | 14.8 | 0.00 | 0.01 | 0.01 | 87 | 1012.2 |
| 20260506135831 | 59 | 39 | 7.0 | 13.9 | 0.00 | 0.01 | 0.01 | 87 | 1014.3 |
| 20260506135541 | 59 | 4 | 5.2 | 13.0 | 0.00 | 0.01 | 0.01 | 88 | 1012.2 |
| 20260506135327 | 59 | 350 | 5.2 | 13.0 | 0.00 | 0.01 | 0.01 | 88 | 1014.5 |
| 20260506135032 | 59 | 8 | 6.1 | 13.0 | 0.00 | 0.01 | 0.01 | 87 | 1012.2 |
| 20260506134824 | 59 | 4 | 8.7 | 13.0 | 0.00 | 0.01 | 0.01 | 87 | 1014.6 |
| 20260506134525 | 59 | 36 | 7.8 | 13.9 | 0.00 | 0.01 | 0.01 | 87 | 1012.1 |
| 20260506134320 | 60 | 354 | 8.7 | 13.9 | 0.00 | 0.01 | 0.01 | 87 | 1014.1 |
| 20260506134019 | 59 | 19 | 6.1 | 13.9 | 0.00 | 0.01 | 0.01 | 87 | 1011.4 |
| 20260506133835 | 60 | 38 | 8.7 | 13.9 | 0.00 | 0.01 | 0.01 | 87 | 1013.4 |
| 20260506133541 | 59 | 25 | 5.2 | 12.2 | 0.00 | 0.01 | 0.01 | 88 | 1010.9 |
| 20260506133350 | 60 | 81 | 7.0 | 12.2 | 0.00 | 0.01 | 0.01 | 88 | 1013.0 |
| 20260506133004 | 60 | 10 | 6.1 | 12.2 | 0.00 | 0.01 | 0.01 | 88 | 1010.6 |
| 20260506132824 | 60 | 37 | 6.1 | 12.2 | 0.00 | 0.01 | 0.01 | 88 | 1012.8 |
| 20260506132556 | 60 | 15 | 7.0 | 12.2 | 0.00 | 0.01 | 0.01 | 87 | 1010.4 |
| 20260506132340 | 60 | 27 | 7.0 | 10.4 | 0.00 | 0.01 | 0.01 | 87 | 1012.8 |
| 20260506132027 | 60 | 29 | 5.2 | 12.2 | 0.00 | 0.01 | 0.01 | 87 | 1010.6 |
| 20260506131834 | 61 | 8 | 4.3 | 12.2 | 0.00 | 0.01 | 0.01 | 87 | 1012.8 |
| 20260506131515 | 60 | 37 | 7.0 | 12.2 | 0.00 | 0.01 | 0.01 | 87 | 1010.5 |
| 20260506131328 | 61 | 37 | 7.0 | 12.2 | 0.00 | 0.01 | 0.01 | 87 | 1012.6 |
| 20260506131005 | 60 | 4 | 6.1 | 12.2 | 0.00 | 0.01 | 0.01 | 87 | 1010.5 |
| 20260506130824 | 61 | 10 | 7.0 | 12.2 | 0.00 | 0.01 | 0.01 | 87 | 1012.7 |
| 20260506130557 | 60 | 16 | 6.1 | 10.4 | 0.00 | 0.01 | 0.01 | 87 | 1010.5 |
| 20260506130320 | 61 | 359 | 4.3 | 10.4 | 0.00 | 0.01 | 0.01 | 88 | 1012.8 |
| 20260506130053 | 61 | 4 | 4.3 | 10.4 | 0.00 | 0.01 | 0.01 | 87 | 1010.5 |
| 20260506125816 | 61 | 8 | 4.3 | 7.8 | 0.00 | 0.01 | 0.01 | 88 | 1012.5 |
| 20260506125542 | 61 | 33 | 2.6 | 7.8 | 0.00 | 0.01 | 0.01 | 87 | 1010.2 |
| 20260506125332 | 61 | 50 | 4.3 | 7.8 | 0.01 | 0.01 | 0.01 | 87 | 1012.5 |
| 20260506125037 | 61 | 41 | 3.5 | 7.8 | 0.01 | 0.01 | 0.01 | 88 | 1010.3 |
| 20260506124829 | 62 | 42 | 3.5 | 7.8 | 0.01 | 0.01 | 0.01 | 88 | 1012.6 |
| 20260506124529 | 61 | 14 | 2.6 | 7.0 | 0.01 | 0.01 | 0.01 | 87 | 1010.2 |
| 20260506124325 | 62 | 31 | 2.6 | 8.7 | 0.01 | 0.01 | 0.01 | 87 | 1012.4 |
| 20260506124022 | 61 | 26 | 3.5 | 8.7 | 0.01 | 0.01 | 0.01 | 87 | 1010.1 |
| 20260506123821 | 62 | 62 | 4.3 | 8.7 | 0.01 | 0.01 | 0.01 | 87 | 1012.2 |
| 20260506123515 | 62 | 34 | 1.7 | 8.7 | 0.01 | 0.01 | 0.01 | 87 | 1009.8 |
| 20260506123318 | 62 | 54 | 2.6 | 7.8 | 0.01 | 0.01 | 0.01 | 87 | 1012.1 |
| 20260506123059 | 62 | 34 | 3.5 | 8.7 | 0.01 | 0.01 | 0.01 | 87 | 1009.8 |
| 20260506122816 | 62 | 47 | 4.3 | 8.7 | 0.01 | 0.01 | 0.01 | 86 | 1012.2 |
| 20260506122550 | 62 | 31 | 3.5 | 8.7 | 0.01 | 0.01 | 0.01 | 87 | 1009.8 |
| 20260506122333 | 62 | 32 | 3.5 | 7.8 | 0.01 | 0.01 | 0.01 | 87 | 1012.1 |
| 20260506122042 | 62 | 14 | 3.5 | 7.8 | 0.01 | 0.01 | 0.01 | 87 | 1009.8 |
| 20260506121828 | 62 | 4 | 3.5 | 7.8 | 0.01 | 0.01 | 0.01 | 87 | 1012.0 |
| 20260506121536 | 62 | 4 | 3.5 | 7.8 | 0.01 | 0.01 | 0.01 | 87 | 1009.7 |
| 20260506121340 | 63 | 359 | 4.3 | 7.8 | 0.01 | 0.01 | 0.01 | 87 | 1011.9 |
| 20260506121101 | 62 | 4 | 2.6 | 5.2 | 0.01 | 0.01 | 0.01 | 87 | 1009.6 |
| 20260506120816 | 63 | 16 | 3.5 | 7.8 | 0.01 | 0.01 | 0.01 | 87 | 1011.9 |
| 20260506120555 | 62 | 8 | 2.6 | 8.7 | 0.01 | 0.01 | 0.01 | 87 | 1009.4 |
| 20260506120331 | 63 | 4 | 2.6 | 8.7 | 0.01 | 0.01 | 0.01 | 87 | 1011.8 |
| 20260506120050 | 63 | 39 | 4.3 | 8.7 | 0.01 | 0.01 | 0.01 | 86 | 1009.3 |
| 20260506115826 | 63 | 59 | 5.2 | 7.8 | 0.01 | 0.01 | 0.01 | 87 | 1011.7 |
| 20260506115536 | 63 | 40 | 3.5 | 7.8 | 0.00 | 0.00 | 0.00 | 87 | 1009.2 |
| 20260506115320 | 64 | 41 | 4.3 | 7.8 | 0.00 | 0.00 | 0.00 | 87 | 1011.6 |
| 20260506115028 | 64 | 9 | 4.3 | 7.8 | 0.00 | 0.00 | 0.00 | 87 | 1009.2 |
| 20260506114816 | 64 | 11 | 2.6 | 5.2 | 0.00 | 0.00 | 0.00 | 87 | 1011.5 |
| 20260506114524 | 64 | 18 | 2.6 | 5.2 | 0.00 | 0.00 | 0.00 | 87 | 1009.1 |
| 20260506114331 | 65 | 4 | 2.6 | 4.3 | 0.00 | 0.00 | 0.00 | 88 | 1011.4 |
| 20260506114008 | 64 | 24 | 2.6 | 6.1 | 0.00 | 0.00 | 0.00 | 87 | 1009.2 |
| 20260506113827 | 65 | 359 | 2.6 | 6.1 | 0.00 | 0.00 | 0.00 | 87 | 1011.6 |
| 20260506113604 | 64 | 31 | 1.7 | 6.1 | 0.00 | 0.00 | 0.00 | 87 | 1009.2 |
| 20260506113321 | 65 | 25 | 3.5 | 6.1 | 0.00 | 0.00 | 0.00 | 86 | 1011.5 |
| 20260506113033 | 65 | 18 | 1.7 | 4.3 | 0.00 | 0.00 | 0.00 | 86 | 1009.1 |
| 20260506112818 | 66 | 34 | 2.6 | 5.2 | 0.00 | 0.00 | 0.00 | 86 | 1011.4 |
| 20260506112524 | 65 | 66 | 2.6 | 5.2 | 0.00 | 0.00 | 0.00 | 86 | 1009.1 |
| 20260506112314 | 66 | 73 | 1.7 | 5.2 | 0.00 | 0.00 | 0.00 | 86 | 1011.4 |
| 20260506112010 | 66 | 72 | 2.6 | 6.1 | 0.00 | 0.00 | 0.00 | 86 | 1008.9 |
| 20260506111829 | 66 | 48 | 1.7 | 3.5 | 0.00 | 0.00 | 0.00 | 87 | 1011.3 |
| 20260506111544 | 66 | 27 | 0.9 | 3.5 | 0.00 | 0.00 | 0.00 | 87 | 1009.1 |
| 20260506111325 | 66 | 27 | 0.9 | 5.2 | 0.00 | 0.00 | 0.00 | 87 | 1011.3 |
| 20260506111038 | 66 | 28 | 0.9 | 5.2 | 0.00 | 0.00 | 0.00 | 86 | 1009.0 |
| 20260506110842 | 66 | 28 | 1.7 | 5.2 | 0.00 | 0.00 | 0.00 | 86 | 1011.4 |
| 20260506110606 | 66 | 4 | 2.6 | 4.3 | 0.00 | 0.00 | 0.00 | 86 | 1009.0 |
| 20260506110317 | 67 | 4 | 2.6 | 4.3 | 0.00 | 0.00 | 0.00 | 86 | 1011.4 |
| 20260506110051 | 66 | 359 | 1.7 | 4.3 | 0.00 | 0.00 | 0.00 | 86 | 1009.0 |
| 20260506105814 | 67 | 359 | 2.6 | 4.3 | 0.00 | 0.00 | 0.00 | 86 | 1011.3 |
| 20260506105549 | 66 | 8 | 2.6 | 5.2 | 0.00 | 0.00 | 0.00 | 86 | 1009.0 |
| 20260506105330 | 67 | 4 | 3.5 | 5.2 | 0.00 | 0.00 | 0.00 | 86 | 1011.3 |
| 20260506105037 | 67 | 359 | 1.7 | 5.2 | 0.00 | 0.00 | 0.00 | 86 | 1008.8 |
| 20260506104827 | 67 | 359 | 2.6 | 5.2 | 0.00 | 0.00 | 0.00 | 86 | 1011.1 |
| 20260506104526 | 67 | 8 | 2.6 | 5.2 | 0.00 | 0.00 | 0.00 | 85 | 1008.7 |
| 20260506104323 | 67 | 337 | 2.6 | 5.2 | 0.00 | 0.00 | 0.00 | 85 | 1011.1 |
| 20260506104008 | 67 | 29 | 2.6 | 7.0 | 0.00 | 0.00 | 0.00 | 86 | 1008.8 |
| 20260506103819 | 68 | 359 | 1.7 | 7.0 | 0.00 | 0.00 | 0.00 | 86 | 1011.2 |
| 20260506103600 | 67 | 346 | 2.6 | 7.8 | 0.00 | 0.00 | 0.00 | 86 | 1008.8 |
| 20260506103315 | 68 | 18 | 3.5 | 7.8 | 0.00 | 0.00 | 0.00 | 85 | 1011.1 |
| 20260506103055 | 68 | 359 | 1.7 | 7.8 | 0.00 | 0.00 | 0.00 | 86 | 1008.7 |
| 20260506102830 | 69 | 348 | 4.3 | 7.8 | 0.00 | 0.00 | 0.00 | 85 | 1011.2 |
| 20260506102546 | 69 | 4 | 3.5 | 7.8 | 0.00 | 0.00 | 0.00 | 85 | 1008.7 |
| 20260506102327 | 70 | 354 | 5.2 | 7.8 | 0.00 | 0.00 | 0.00 | 85 | 1011.1 |
| 20260506102039 | 70 | 354 | 0.0 | 0.0 | 0.00 | 0.00 | 0.00 | 85 | 1008.6 |
| 20260506101822 | 72 | 359 | 0.0 | 0.0 | 0.00 | 0.00 | 0.00 | 86 | 1010.9 |
| 20260506101530 | 72 | 348 | 0.0 | 0.0 | 0.00 | 0.00 | 0.00 | 86 | 1008.4 |
| 20260506101318 | 73 | 329 | 0.0 | 0.0 | 0.00 | 0.00 | 0.00 | 88 | 1010.8 |
| 20260506101022 | 73 | 166 | 0.0 | 0.0 | 0.00 | 0.00 | 0.00 | 89 | 1008.4 |
| 20260506100814 | 74 | 166 | 0.0 | 0.0 | 0.00 | 0.00 | 0.00 | 89 | 1010.8 |
| 20260506100506 | 73 | 167 | 0.0 | 0.0 | 0.00 | 0.00 | 0.00 | 89 | 1008.3 |
| 20260506100331 | 74 | 166 | 0.0 | 0.0 | 0.00 | 0.00 | 0.00 | 89 | 1010.6 |
| 20260506100101 | 73 | 166 | 0.0 | 0.0 | 0.00 | 0.00 | 0.00 | 89 | 1008.2 |
| 20260506095827 | 74 | 141 | 0.0 | 0.0 | 0.00 | 0.00 | 0.00 | 89 | 1010.7 |
| 20260506095550 | 73 | 172 | 0.0 | 0.0 | 0.00 | 0.00 | 0.00 | 89 | 1008.1 |
| 20260506095342 | 74 | 161 | 0.0 | 0.0 | 0.00 | 0.00 | 0.00 | 89 | 1010.4 |
| 20260506095021 | 73 | 162 | 0.0 | 0.0 | 0.00 | 0.00 | 0.00 | 89 | 1008.0 |
| 20260506094816 | 74 | 144 | 0.0 | 0.0 | 0.00 | 0.00 | 0.00 | 89 | 1010.4 |
| 20260506094505 | 73 | 180 | 0.0 | 0.0 | 0.00 | 0.00 | 0.00 | 89 | 1008.0 |
| 20260506094333 | 74 | 181 | 0.0 | 0.0 | 0.00 | 0.00 | 0.00 | 89 | 1010.4 |
| 20260506094058 | 74 | 161 | 0.0 | 0.0 | 0.00 | 0.00 | 0.00 | 89 | 1008.0 |
| 20260506093827 | 74 | 160 | 0.0 | 0.0 | 0.00 | 0.00 | 0.00 | 89 | 1010.3 |
| 20260506093552 | 74 | 158 | 0.0 | 0.0 | 0.00 | 0.00 | 0.00 | 88 | 1007.8 |
| 20260506093323 | 74 | 162 | 0.0 | 0.0 | 0.00 | 0.00 | 0.00 | 88 | 1010.2 |
| 20260506093104 | 74 | 149 | 0.0 | 0.0 | 0.00 | 0.00 | 0.00 | 88 | 1007.8 |
| 20260506092818 | 74 | 149 | 0.0 | 0.0 | 0.00 | 0.00 | 0.00 | 88 | 1010.2 |
| 20260506092536 | 74 | 149 | 0.0 | 0.0 | 0.00 | 0.00 | 0.00 | 88 | 1007.8 |
| 20260506092314 | 74 | 149 | 0.0 | 0.0 | 0.00 | 0.00 | 0.00 | 88 | 1010.3 |
| 20260506092030 | 74 | 149 | 0.0 | 0.0 | 0.00 | 0.00 | 0.00 | 88 | 1007.9 |
| 20260506091832 | 74 | 149 | 0.0 | 0.0 | 0.00 | 0.00 | 0.00 | 88 | 1010.3 |
| 20260506091515 | 74 | 148 | 0.0 | 0.0 | 0.00 | 0.00 | 0.00 | 88 | 1007.8 |
| 20260506091322 | 74 | 149 | 0.0 | 0.0 | 0.00 | 0.00 | 0.00 | 88 | 1010.3 |
| 20260506091042 | 74 | 148 | 0.0 | 0.0 | 0.00 | 0.00 | 0.00 | 88 | 1007.8 |
| 20260506090818 | 75 | 149 | 0.0 | 0.0 | 0.00 | 0.00 | 0.00 | 88 | 1010.2 |
| 20260506090536 | 74 | 149 | 0.0 | 0.0 | 0.00 | 0.00 | 0.00 | 88 | 1007.8 |
| 20260506090333 | 75 | 149 | 0.0 | 0.0 | 0.00 | 0.00 | 0.00 | 88 | 1010.2 |
| 20260506090117 | 74 | 148 | 0.0 | 0.0 | 0.00 | 0.00 | 0.00 | 88 | 1007.7 |
| 20260506085828 | 75 | 149 | 0.0 | 0.0 | 0.00 | 0.00 | 0.00 | 88 | 1010.1 |
| 20260506085552 | 74 | 148 | 0.0 | 0.0 | 0.00 | 0.00 | 0.00 | 88 | 1007.6 |
| 20260506085326 | 75 | 149 | 0.0 | 0.0 | 0.00 | 0.00 | 0.00 | 88 | 1010.1 |
| 20260506085048 | 74 | 149 | 0.0 | 0.0 | 0.00 | 0.00 | 0.00 | 88 | 1007.7 |
| 20260506084822 | 75 | 148 | 0.0 | 0.0 | 0.00 | 0.00 | 0.00 | 88 | 1010.0 |
| 20260506084543 | 74 | 148 | 0.0 | 0.0 | 0.00 | 0.00 | 0.00 | 88 | 1007.6 |
| 20260506084316 | 75 | 149 | 0.0 | 0.0 | 0.00 | 0.00 | 0.00 | 88 | 1010.0 |
| 20260506084017 | 74 | 149 | 0.0 | 0.0 | 0.00 | 0.00 | 0.00 | 88 | 1007.6 |
| 20260506083832 | 75 | 149 | 0.0 | 0.0 | 0.00 | 0.00 | 0.00 | 88 | 1010.1 |
| 20260506083600 | 74 | 149 | 0.0 | 0.0 | 0.00 | 0.00 | 0.00 | 88 | 1007.7 |
| 20260506083329 | 75 | 149 | 0.0 | 0.0 | 0.00 | 0.00 | 0.00 | 88 | 1010.0 |
| 20260506083049 | 74 | 149 | 0.0 | 0.0 | 0.00 | 0.00 | 0.00 | 88 | 1007.5 |
| 20260506082825 | 75 | 149 | 0.0 | 0.0 | 0.00 | 0.00 | 0.00 | 88 | 1009.9 |
| 20260506082540 | 74 | 149 | 0.0 | 0.0 | 0.00 | 0.00 | 0.00 | 88 | 1007.5 |
| 20260506082322 | 75 | 135 | 0.0 | 0.0 | 0.00 | 0.00 | 0.00 | 88 | 1009.9 |
| 20260506082034 | 74 | 181 | 0.0 | 0.0 | 0.00 | 0.00 | 0.00 | 88 | 1007.5 |
| 20260506081838 | 75 | 181 | 0.0 | 0.0 | 0.00 | 0.00 | 0.00 | 88 | 1010.0 |
| 20260506081556 | 74 | 181 | 0.0 | 0.0 | 0.00 | 0.00 | 0.00 | 88 | 1007.5 |
| 20260506081333 | 75 | 181 | 0.0 | 0.0 | 0.00 | 0.00 | 0.00 | 88 | 1010.0 |
| 20260506081046 | 74 | 181 | 0.0 | 0.0 | 0.00 | 0.00 | 0.00 | 88 | 1007.5 |
| 20260506080848 | 75 | 181 | 0.0 | 0.0 | 0.00 | 0.00 | 0.00 | 88 | 1010.0 |
| 20260506080512 | 74 | 181 | 0.0 | 0.0 | 0.00 | 0.00 | 0.00 | 88 | 1007.6 |
| 20260506080345 | 75 | 181 | 0.0 | 0.0 | 0.00 | 0.00 | 0.00 | 88 | 1010.0 |
| 20260506073526 | 74 | 181 | 0.0 | 0.0 | 0.00 | 0.00 | 0.00 | 88 | 1007.7 |
| 20260506073317 | 75 | 181 | 0.0 | 0.0 | 0.00 | 0.00 | 0.00 | 88 | 1010.2 |
| 20260506073011 | 74 | 181 | 0.0 | 0.0 | 0.00 | 0.00 | 0.00 | 88 | 1007.8 |
| 20260506072833 | 75 | 181 | 0.0 | 0.0 | 0.00 | 0.00 | 0.00 | 88 | 1010.3 |
| 20260506072503 | 74 | 181 | 0.0 | 0.0 | 0.00 | 0.00 | 0.00 | 88 | 1007.9 |
| 20260506072330 | 75 | 181 | 0.0 | 0.0 | 0.00 | 0.00 | 0.00 | 87 | 1010.3 |
| 20260506072058 | 74 | 181 | 0.0 | 0.0 | 0.00 | 0.00 | 0.00 | 87 | 1007.8 |
| 20260506071827 | 75 | 181 | 0.0 | 0.0 | 0.00 | 0.00 | 0.00 | 87 | 1010.3 |
| 20260506071550 | 75 | 181 | 0.0 | 0.0 | 0.00 | 0.00 | 0.00 | 87 | 1008.0 |
| 20260506071340 | 75 | 181 | 0.0 | 0.0 | 0.00 | 0.00 | 0.00 | 87 | 1010.4 |
| 20260506071020 | 75 | 181 | 0.0 | 0.0 | 0.00 | 0.00 | 0.00 | 87 | 1008.0 |
| 20260506070834 | 75 | 181 | 0.0 | 0.0 | 0.00 | 0.00 | 0.00 | 87 | 1010.3 |
| 20260506070506 | 75 | 181 | 0.0 | 0.0 | 0.00 | 0.00 | 0.00 | 87 | 1008.0 |
| 20260506070330 | 75 | 181 | 0.0 | 0.0 | 0.00 | 0.00 | 0.00 | 87 | 1010.4 |
| 20260506062503 | 75 | 224 | 0.0 | 0.0 | 0.00 | 0.00 | 0.00 | 87 | 1007.9 |
| 20260506062341 | 75 | 225 | 0.0 | 0.0 | 0.00 | 0.00 | 0.00 | 87 | 1010.3 |
| 20260506062034 | 75 | 224 | 0.0 | 0.0 | 0.00 | 0.00 | 0.00 | 87 | 1007.9 |
| 20260506061816 | 75 | 225 | 0.0 | 0.0 | 0.00 | 0.00 | 0.00 | 87 | 1010.2 |
| 20260506061528 | 75 | 225 | 0.0 | 0.0 | 0.00 | 0.00 | 0.00 | 86 | 1007.9 |
| 20260506061331 | 75 | 225 | 0.0 | 0.0 | 0.00 | 0.00 | 0.00 | 87 | 1010.2 |
| 20260506061014 | 75 | 225 | 0.0 | 0.0 | 0.00 | 0.00 | 0.00 | 86 | 1007.7 |
| 20260506060828 | 75 | 225 | 0.0 | 0.0 | 0.00 | 0.00 | 0.00 | 86 | 1010.1 |
| 20260506060510 | 75 | 225 | 0.0 | 0.0 | 0.00 | 0.00 | 0.00 | 86 | 1007.8 |
| 20260506060323 | 75 | 225 | 0.0 | 0.0 | 0.00 | 0.00 | 0.00 | 86 | 1010.2 |
| 20260506060105 | 75 | 226 | 0.0 | 0.0 | 0.00 | 0.00 | 0.00 | 86 | 1007.7 |
| 20260506051348 | 76 | 189 | 0.0 | 0.0 | 0.00 | 0.00 | 0.00 | 85 | 1009.4 |
| 20260506051100 | 75 | 199 | 0.0 | 0.0 | 0.00 | 0.00 | 0.00 | 85 | 1006.9 |
| 20260506050823 | 76 | 205 | 0.0 | 0.0 | 0.00 | 0.00 | 0.00 | 85 | 1009.4 |
| 20260506050554 | 75 | 185 | 0.0 | 0.0 | 0.00 | 0.00 | 0.00 | 85 | 1007.1 |
| 20260506050319 | 76 | 184 | 0.0 | 0.0 | 0.00 | 0.00 | 0.00 | 85 | 1009.4 |
| 20260506045016 | 75 | 204 | 0.0 | 0.0 | 0.00 | 0.00 | 0.00 | 84 | 1007.1 |
| 20260506044816 | 76 | 199 | 0.0 | 0.0 | 0.00 | 0.00 | 0.00 | 84 | 1009.4 |
| 20260506044608 | 76 | 171 | 0.0 | 0.0 | 0.00 | 0.00 | 0.00 | 84 | 1007.2 |
| 20260506044333 | 76 | 185 | 0.0 | 0.0 | 0.00 | 0.00 | 0.00 | 84 | 1009.4 |
| 20260506044048 | 76 | 206 | 0.0 | 0.0 | 0.00 | 0.00 | 0.00 | 84 | 1007.1 |
| 20260506043827 | 76 | 164 | 0.0 | 0.0 | 0.00 | 0.00 | 0.00 | 84 | 1009.4 |
| 20260506043522 | 76 | 152 | 0.0 | 0.0 | 0.00 | 0.00 | 0.00 | 83 | 1006.9 |
| 20260506043324 | 76 | 196 | 0.0 | 0.0 | 0.00 | 0.00 | 0.00 | 84 | 1009.3 |
| 20260506043019 | 76 | 213 | 0.0 | 0.0 | 0.00 | 0.00 | 0.00 | 83 | 1007.0 |
| 20260506042840 | 76 | 187 | 0.0 | 0.0 | 0.00 | 0.00 | 0.00 | 83 | 1009.2 |
| 20260506042544 | 76 | 179 | 0.0 | 0.0 | 0.00 | 0.00 | 0.00 | 83 | 1007.1 |
| 20260506042316 | 76 | 188 | 0.0 | 0.0 | 0.00 | 0.00 | 0.00 | 83 | 1009.3 |
| 20260506042035 | 76 | 154 | 0.0 | 0.0 | 0.00 | 0.00 | 0.00 | 83 | 1006.9 |
| 20260506041832 | 76 | 170 | 0.0 | 0.0 | 0.00 | 0.00 | 0.00 | 83 | 1009.2 |
| 20260506041530 | 76 | 208 | 0.0 | 0.0 | 0.00 | 0.00 | 0.00 | 83 | 1006.9 |
| 20260506041329 | 76 | 174 | 0.0 | 0.0 | 0.00 | 0.00 | 0.00 | 83 | 1009.2 |
| 20260506041024 | 76 | 193 | 0.0 | 0.0 | 0.00 | 0.00 | 0.00 | 83 | 1006.7 |
| 20260506040824 | 76 | 136 | 0.0 | 0.0 | 0.00 | 0.00 | 0.00 | 83 | 1009.1 |
| 20260506040520 | 76 | 175 | 0.0 | 0.0 | 0.00 | 0.00 | 0.00 | 83 | 1006.8 |
| 20260506040338 | 76 | 180 | 0.0 | 0.0 | 0.00 | 0.00 | 0.00 | 83 | 1009.0 |
| 20260506040040 | 76 | 171 | 0.0 | 0.0 | 0.00 | 0.00 | 0.00 | 83 | 1006.8 |
| 20260506035813 | 76 | 168 | 0.0 | 0.0 | 0.00 | 0.00 | 0.00 | 83 | 1009.2 |
| 20260506035534 | 75 | 181 | 0.0 | 0.0 | 0.00 | 0.00 | 0.00 | 83 | 1006.7 |
| 20260506035330 | 76 | 189 | 0.0 | 0.0 | 0.00 | 0.00 | 0.00 | 83 | 1009.1 |
| 20260506035028 | 75 | 168 | 0.0 | 0.0 | 0.00 | 0.00 | 0.00 | 83 | 1006.7 |
| 20260506034825 | 76 | 183 | 0.0 | 0.0 | 0.00 | 0.00 | 0.00 | 83 | 1009.0 |
| 20260506034524 | 75 | 164 | 0.0 | 0.0 | 0.00 | 0.00 | 0.00 | 83 | 1006.7 |
| 20260506034339 | 76 | 217 | 0.0 | 0.0 | 0.00 | 0.00 | 0.00 | 83 | 1009.1 |